Starlink 3560

operational
NORAD ID: 51859 Int'l Des: 2022-022 Owner: SPXS Country: US Constellation: starlink
LEOCIRCULAR

关于 Starlink 3560

正在加载描述...

实时位置

正在加载3D地球...

即将过境

高度历史

Altitude vs Time

uPlot chart will show altitude changes over time

两行轨道根数

1 51859U 22022H 25305.48132090 -.00001738 00000-0 -91130-4 0 9997
2 51859 53.2169 224.6801 0001141 79.5366 280.5754 15.08836698203800
Epoch: Nov 1, 2025 • Age: 24 hours

当前状态

高度 540.8 km
速度 7.60 km/s
星下点 29.09°N, 29.2°E
发射日期 Mar 3, 2022
运行时间 3.6 years
类型 internet

技术详情

分类 Payload
质量 297.00 kg
干质量 275.00 kg
总质量 297.00 kg
长度 0.20 m
直径 2.80 m
跨度 9.00 m
形状 Box + pan
制造商 SPXS
平台类型 Starlink
阶段状态 In Orbit
所有者/国家 SPXS/US

大型星座

Loading constellations...